Cocoa Beach, FL

4:25 PM EDT on April 28, 2017 (GMT -0400)
Cape Canaveral Air Station Skid Strip

Weather History for KXMR - August, 2013

Change the Weather History Date:

Tuesday, August 6, 2013

  Actual Average (KCOF) Record (KCOF)
Temperature  
Mean Temperature 79 °F -  
Max Temperature 88 °F 85 °F 95 °F (2002)
Min Temperature 71 °F 74 °F 73 °F (2003)
Cooling Degree Days 14    
Growing Degree Days 29 (Base 50)    
Moisture  
Dew Point 75 °F    
Average Humidity 85    
Maximum Humidity 96    
Minimum Humidity 70    
Precipitation  
Precipitation 0.00 in - - ()
Sea Level Pressure  
Sea Level Pressure 29.96 in    
Wind  
Wind Speed 3 mph (ENE)    
Max Wind Speed 9 mph    
Max Gust Speed -    
Visibility 10 miles    
Events      
Averages and records for this station are not official NWS values.
T = Trace of Precipitation, MM = Missing Value Source: NWS Daily Summary

Daily Weather History Graph

Daily Weather History Graph

Search for Another Location

Airport or City:

Trip Planner

Search our weather history database for the weather conditions in past years. The results will help you decide how hot, cold, wet, or windy it might be!

Date:

Astronomy

Aug. 06, 2013 Rise Set
Actual Time 6:46 AM EDT 8:08 PM EDT
Civil Twilight 6:21 AM EDT 8:34 PM EDT
Nautical Twilight 5:51 AM EDT 9:03 PM EDT
Astronomical Twilight 5:20 AM EDT 9:35 PM EDT
Moon 6:32 AM EDT (8/6) 7:50 PM EDT (8/6)
Length of Visible Light 14h 12m
Length of Day
13h 21m
Waning Crescent, 0% of the Moon is Illuminated
Aug 6
Waning Crescent
Aug 6
New
Aug 14
First Quarter
Aug 20
Full
Aug 28
Last Quarter

Hourly Weather History & Observations

Time (EDT) Temp. Heat Index Dew Point Humidity Pressure Visibility Wind Dir Wind Speed Gust Speed Precip Events Conditions
12:58 AM 74.7 °F - 72.7 °F 94% 29.97 in 10.0 mi NNE 2.3 mph - N/A   Clear
1:58 AM 73.2 °F - 71.6 °F 95% 29.95 in 10.0 mi NW 2.3 mph - N/A   Clear
2:58 AM 73.2 °F - 72.0 °F 96% 29.94 in 10.0 mi East 4.6 mph - N/A   Clear
3:58 AM 72.1 °F - 71.1 °F 96% 29.93 in 10.0 mi ENE 2.3 mph - N/A   Clear
4:58 AM 71.8 °F - 70.5 °F 96% 29.93 in 10.0 mi Calm Calm - N/A   Clear
5:58 AM 71.8 °F - 70.3 °F 95% 29.93 in 10.0 mi WNW 2.3 mph - N/A   Clear
6:58 AM 71.4 °F - 70.2 °F 96% 29.95 in 10.0 mi Calm Calm - N/A   Clear
7:58 AM 75.7 °F - 74.5 °F 96% 29.97 in 10.0 mi North 3.5 mph - N/A   Clear
8:58 AM 81.1 °F 87.4 °F 75.6 °F 83% 29.97 in 10.0 mi Calm Calm - N/A   Clear
9:58 AM 83.8 °F 92.1 °F 75.7 °F 76% 29.97 in 10.0 mi East 4.6 mph - N/A   Clear
10:58 AM 85.3 °F 95.4 °F 76.5 °F 75% 29.99 in 10.0 mi NE 5.8 mph - N/A   Clear
11:58 AM 86.5 °F 98.3 °F 77.2 °F 74% 29.99 in 10.0 mi ENE 5.8 mph - N/A   Clear
12:58 PM 86.9 °F 98.8 °F 77.2 °F 73% 29.98 in 10.0 mi Variable 5.8 mph - N/A   Clear
1:58 PM 87.1 °F 98.3 °F 76.6 °F 71% 29.97 in 10.0 mi Variable 5.8 mph - N/A   Partly Cloudy
2:58 PM 87.6 °F 99.2 °F 76.8 °F 70% 29.96 in 10.0 mi SE 6.9 mph - N/A   Clear
3:58 PM 86.9 °F 97.8 °F 76.6 °F 71% 29.94 in 10.0 mi Variable 6.9 mph - N/A   Clear
4:58 PM 86.5 °F 98.8 °F 77.7 °F 75% 29.94 in 10.0 mi East 8.1 mph - N/A   Clear
5:58 PM 85.6 °F 96.8 °F 77.4 °F 76% 29.94 in 10.0 mi East 9.2 mph - N/A   Clear
6:58 PM 84.2 °F 93.4 °F 76.5 °F 77% 29.94 in 10.0 mi East 6.9 mph - N/A   Clear
7:58 PM 82.0 °F 90.2 °F 77.2 °F 85% 29.97 in 10.0 mi ENE 2.3 mph - N/A   Clear
8:58 PM 80.1 °F 85.8 °F 76.8 °F 90% 29.97 in 10.0 mi ESE 4.6 mph - N/A   Clear
9:58 PM 79.0 °F - 75.2 °F 88% 29.98 in 10.0 mi East 3.5 mph - N/A   Clear
10:58 PM 78.8 °F - 76.3 °F 92% 29.97 in 10.0 mi ESE 4.6 mph - N/A   Clear
11:58 PM 78.6 °F - 75.6 °F 90% 29.98 in 10.0 mi Calm Calm - N/A   Clear